| time (UTC) | temp F | wind direction | speed MPH | gust MPH | rain 1hr in | rain 24hr in | rain mn in | humidity % | barometer mb |
| 20260906214254 | 94 | 112 | 0.0 | 1.0 | 0.02 | 0.09 | 0.08 | 31 | 1005.5 |
| 20260906211252 | 95 | 175 | 2.0 | 3.0 | 0.02 | 0.08 | 0.07 | 31 | 1005.7 |
| 20260906204251 | 94 | 176 | 1.0 | 2.0 | 0.01 | 0.07 | 0.05 | 32 | 1006.4 |
| 20260906201251 | 94 | 183 | 2.0 | 2.0 | 0.02 | 0.07 | 0.04 | 32 | 1006.8 |
| 20260906194249 | 94 | 171 | 1.0 | 1.0 | 0.02 | 0.08 | 0.03 | 32 | 1007.0 |
| 20260906191248 | 93 | 171 | 1.0 | 2.0 | 0.01 | 0.07 | 0.01 | 34 | 1007.6 |
| 20260906184247 | 93 | 113 | 1.0 | 1.0 | 0.00 | 0.07 | 0.00 | 36 | 1007.9 |
| 20260906181246 | 91 | 128 | 0.0 | 2.0 | 0.00 | 0.06 | 0.00 | 37 | 1008.8 |
| 20260906174245 | 90 | 101 | 1.0 | 2.0 | 0.00 | 0.06 | 0.00 | 42 | 1009.5 |
| 20260906171244 | 90 | 150 | 1.0 | 1.0 | 0.00 | 0.06 | 0.00 | 40 | 1009.4 |
| 20260906164243 | 89 | 186 | 2.0 | 2.0 | 0.00 | 0.06 | 0.00 | 43 | 1009.7 |
| 20260906161242 | 86 | 185 | 1.0 | 2.0 | 0.00 | 0.06 | 0.00 | 51 | 1010.2 |
| 20260906154241 | 84 | 206 | 2.0 | 2.0 | 0.00 | 0.07 | 0.00 | 55 | 1010.5 |
| 20260906151240 | 82 | 195 | 1.0 | 1.0 | 0.00 | 0.08 | 0.00 | 57 | 1010.7 |
| 20260906144239 | 80 | 189 | 1.0 | 1.0 | 0.00 | 0.09 | 0.00 | 60 | 1011.1 |
| 20260906141238 | 77 | 160 | 0.0 | 0.0 | 0.00 | 0.09 | 0.00 | 64 | 1011.6 |
| 20260906134237 | 73 | 360 | 0.0 | 0.0 | 0.00 | 0.09 | 0.00 | 69 | 1012.2 |
| 20260906131236 | 69 | 224 | 0.0 | 0.0 | 0.00 | 0.09 | 0.00 | 74 | 1012.7 |
| 20260906124235 | 69 | 360 | 0.0 | 0.0 | 0.00 | 0.09 | 0.00 | 76 | 1012.5 |
| 20260906121234 | 69 | 148 | 0.0 | 0.0 | 0.00 | 0.09 | 0.00 | 76 | 1012.4 |
| 20260906114233 | 68 | 198 | 0.0 | 0.0 | 0.00 | 0.09 | 0.00 | 75 | 1012.5 |
| 20260906111232 | 69 | 360 | 0.0 | 0.0 | 0.00 | 0.09 | 0.00 | 74 | 1012.2 |
| 20260906104231 | 69 | 360 | 0.0 | 0.0 | 0.00 | 0.09 | 0.00 | 72 | 1012.0 |
| 20260906101230 | 70 | 360 | 0.0 | 0.0 | 0.00 | 0.09 | 0.00 | 69 | 1011.5 |
| 20260906094229 | 71 | 289 | 0.0 | 3.0 | 0.00 | 0.09 | 0.00 | 69 | 1011.0 |
| 20260906091228 | 73 | 194 | 0.0 | 2.0 | 0.00 | 0.09 | 0.00 | 66 | 1010.6 |
| 20260906081837 | 74 | 220 | 0.0 | 0.0 | 0.00 | 0.09 | 0.00 | 63 | 1010.6 |
| 20260906074836 | 75 | 198 | 0.0 | 1.0 | 0.00 | 0.09 | 0.00 | 59 | 1010.3 |
| 20260906071835 | 75 | 231 | 0.0 | 0.0 | 0.00 | 0.09 | 0.00 | 59 | 1010.4 |
| 20260906064834 | 78 | 156 | 0.0 | 1.0 | 0.00 | 0.09 | 0.00 | 54 | 1010.1 |
| 20260906061833 | 79 | 179 | 2.0 | 2.0 | 0.00 | 0.09 | 0.00 | 51 | 1009.9 |
| 20260906054832 | 78 | 176 | 1.0 | 1.0 | 0.00 | 0.09 | 0.00 | 52 | 1009.9 |
| 20260906051831 | 79 | 181 | 0.0 | 0.0 | 0.00 | 0.09 | 0.00 | 50 | 1010.0 |
| 20260906044830 | 79 | 187 | 0.0 | 0.0 | 0.00 | 0.10 | 0.09 | 50 | 1009.7 |
| 20260906041829 | 81 | 341 | 0.0 | 0.0 | 0.00 | 0.11 | 0.09 | 47 | 1009.3 |
| 20260906034828 | 81 | 187 | 1.0 | 1.0 | 0.00 | 0.14 | 0.09 | 46 | 1008.9 |
| 20260906031827 | 83 | 192 | 0.0 | 0.0 | 0.00 | 0.20 | 0.09 | 43 | 1008.3 |
| 20260906024826 | 85 | 190 | 0.0 | 0.0 | 0.00 | 0.27 | 0.09 | 40 | 1007.4 |
| 20260906021825 | 87 | 76 | 0.0 | 0.0 | 0.00 | 0.33 | 0.09 | 38 | 1006.6 |
| 20260906014824 | 88 | 219 | 0.0 | 0.0 | 0.00 | 0.35 | 0.09 | 37 | 1006.0 |
| 20260906011823 | 91 | 97 | 0.0 | 0.0 | 0.00 | 0.35 | 0.09 | 34 | 1005.2 |
| 20260906004822 | 94 | 174 | 0.0 | 0.0 | 0.00 | 0.35 | 0.09 | 30 | 1004.2 |
| 20260906001821 | 96 | 122 | 0.0 | 1.0 | 0.00 | 0.35 | 0.09 | 29 | 1003.8 |
| 20260905234820 | 97 | 120 | 1.0 | 1.0 | 0.00 | 0.35 | 0.09 | 29 | 1003.3 |
| 20260905231819 | 98 | 119 | 1.0 | 1.0 | 0.00 | 0.35 | 0.09 | 29 | 1003.0 |
| 20260905224818 | 98 | 114 | 0.0 | 1.0 | 0.00 | 0.35 | 0.09 | 29 | 1003.0 |
| 20260905221817 | 97 | 184 | 4.0 | 4.0 | 0.00 | 0.35 | 0.08 | 31 | 1003.3 |